CW1394 Weather Reports


time (UTC)temp
C
wind
direction
speed
KPH
gust
KPH
rain 1hr
cm
rain 24hr
cm
rain mn
cm
humidity
%
barometer
mb
20260506143905 9 269 3.2 16.1 0.00 0.00 0.00 89 1019.8
20260506143404 9 212 3.2 12.9 0.00 0.00 0.00 89 1019.8
20260506142904 9 267 4.8 16.1 0.00 0.00 0.00 89 1019.8
20260506142405 9 275 4.8 19.3 0.00 0.00 0.00 89 1019.8
20260506141906 9 284 6.4 19.3 0.00 0.00 0.00 89 1019.7
20260506140905 9 253 6.4 22.5 0.00 0.00 0.00 89 1019.7
20260506135905 9 270 6.4 20.9 0.00 0.00 0.00 89 1019.7
20260506135405 9 276 8.0 22.5 0.00 0.00 0.00 89 1019.8
20260506134905 9 265 11.3 22.5 0.00 0.00 0.00 89 1019.5
20260506134405 9 280 12.9 22.5 0.00 0.00 0.00 89 1019.5
20260506133905 9 283 11.3 20.9 0.00 0.00 0.00 89 1019.5
20260506132905 9 279 11.3 20.9 0.00 0.00 0.00 89 1019.5
20260506132406 9 270 6.4 20.9 0.00 0.00 0.00 89 1019.5
20260506131905 9 267 3.2 22.5 0.00 0.00 0.00 89 1019.4
20260506131405 9 277 11.3 22.5 0.00 0.00 0.00 89 1019.4
20260506130905 9 282 4.8 16.1 0.00 0.00 0.00 89 1019.4
20260506130404 9 271 4.8 16.1 0.00 0.00 0.00 89 1019.4
20260506125905 9 296 6.4 16.1 0.00 0.00 0.00 89 1019.4
20260506125405 9 276 6.4 19.3 0.00 0.00 0.00 89 1019.4
20260506124405 9 272 6.4 12.9 0.00 0.00 0.00 88 1019.4
20260506123905 9 263 3.2 16.1 0.00 0.00 0.00 88 1019.4
20260506122405 9 278 11.3 25.7 0.00 0.00 0.00 88 1019.4
20260506121905 9 269 4.8 20.9 0.00 0.00 0.00 88 1019.3
20260506121405 9 278 8.0 20.9 0.00 0.00 0.00 88 1019.3
20260506120905 9 283 8.0 20.9 0.00 0.00 0.00 88 1019.3
20260506120405 9 286 3.2 25.7 0.00 0.00 0.00 88 1019.3
20260506115905 9 266 8.0 25.7 0.00 0.00 0.00 88 1019.3
20260506115405 9 276 9.7 25.7 0.00 0.00 0.00 88 1019.3
20260506114905 9 276 8.0 25.7 0.00 0.00 0.00 88 1019.3
20260506114406 9 274 9.7 27.4 0.00 0.00 0.00 88 1019.3
20260506113905 9 265 16.1 27.4 0.00 0.00 0.00 88 1019.2
20260506113405 9 281 16.1 25.7 0.00 0.00 0.00 88 1019.2
20260506112905 9 299 12.9 29.0 0.00 0.00 0.00 88 1019.1
20260506112405 9 275 14.5 29.0 0.00 0.00 0.00 88 1019.1
20260506111906 9 283 16.1 35.4 0.00 0.00 0.00 88 1018.9
20260506111406 10 280 14.5 35.4 0.00 0.00 0.00 88 1018.9
20260506110405 10 276 11.3 27.4 0.00 0.00 0.00 88 1018.8
20260506105905 10 260 8.0 25.7 0.00 0.00 0.00 88 1018.8
20260506102905 10 278 16.1 35.4 0.00 0.00 0.00 89 1018.4
20260506102405 10 277 16.1 35.4 0.00 0.00 0.00 89 1018.3
20260506101904 10 277 17.7 27.4 0.00 0.00 0.00 88 1018.3
20260506101405 10 279 12.9 27.4 0.00 0.00 0.00 89 1018.3
20260506100904 10 298 16.1 25.7 0.00 0.00 0.00 89 1018.3
20260506100404 10 272 14.5 25.7 0.00 0.00 0.00 89 1018.3
20260506095904 10 278 11.3 27.4 0.00 0.00 0.00 89 1018.3
20260506095406 10 275 11.3 27.4 0.00 0.00 0.00 89 1018.3
20260506094905 10 239 9.7 24.1 0.00 0.00 0.00 89 1018.3
20260506094405 10 274 9.7 29.0 0.00 0.00 0.00 89 1018.3
20260506093905 10 283 14.5 29.0 0.00 0.00 0.00 89 1018.3
20260506093404 10 278 14.5 25.7 0.00 0.00 0.00 88 1018.3
20260506092904 10 275 11.3 25.7 0.00 0.00 0.00 88 1018.3
20260506092405 10 275 9.7 20.9 0.00 0.00 0.00 88 1018.3
20260506091405 9 251 6.4 25.7 0.00 0.00 0.00 89 1018.3
20260506090904 9 263 8.0 27.4 0.00 0.00 0.00 89 1018.3
20260506090405 9 268 12.9 27.4 0.00 0.00 0.00 89 1018.3
20260506085905 9 269 11.3 25.7 0.00 0.00 0.00 89 1018.3
20260506084905 9 296 8.0 20.9 0.00 0.00 0.00 89 1018.3
20260506084406 9 275 11.3 24.1 0.00 0.00 0.00 89 1018.3
20260506083406 9 260 11.3 27.4 0.00 0.00 0.00 89 1018.3
20260506082905 9 273 11.3 25.7 0.00 0.00 0.00 89 1018.2
20260506082404 9 270 6.4 25.7 0.00 0.00 0.00 89 1018.2
20260506081904 9 244 9.7 29.0 0.00 0.00 0.00 89 1018.2
20260506080905 10 285 12.9 33.8 0.00 0.00 0.00 89 1017.8
20260506080405 10 265 8.0 24.1 0.00 0.00 0.00 89 1017.8
20260506073404 10 268 11.3 25.7 0.00 0.00 0.00 90 1017.7
20260506072904 9 282 8.0 25.7 0.00 0.00 0.00 90 1017.7
20260506072404 9 287 14.5 25.7 0.00 0.00 0.00 90 1017.2
20260506071904 9 274 8.0 24.1 0.00 0.00 0.00 90 1017.2
20260506070905 9 254 8.0 27.4 0.00 0.00 0.00 90 1017.2
20260506070406 9 253 9.7 27.4 0.00 0.00 0.00 90 1017.2
20260506062405 9 264 9.7 24.1 0.00 0.00 0.00 90 1017.2
20260506060905 9 273 9.7 35.4 0.00 0.00 0.00 90 1017.2
20260506051405 10 253 12.9 32.2 0.00 0.00 0.00 89 1017.2
20260506050905 10 265 8.0 35.4 0.00 0.00 0.00 89 1017.2
20260506050407 10 274 11.3 35.4 0.00 0.00 0.00 89 1017.2
20260506044906 10 232 9.7 32.2 0.00 0.00 0.00 89 1017.0
20260506044405 10 233 8.0 27.4 0.00 0.00 0.00 89 1017.0
20260506043904 10 217 14.5 29.0 0.00 0.00 0.00 89 1017.0
20260506043407 10 241 11.3 29.0 0.00 0.00 0.00 89 1016.1
20260506042905 10 232 9.7 27.4 0.00 0.00 0.00 89 1016.1
20260506042404 10 247 9.7 27.4 0.00 0.00 0.00 88 1016.1
20260506041407 10 255 9.7 24.1 0.00 0.00 0.00 88 1016.1
20260506040904 10 228 9.7 27.4 0.00 0.00 0.00 88 1016.1
20260506040407 10 249 6.4 27.4 0.00 0.00 0.00 87 1016.1
20260506035904 10 244 11.3 25.7 0.00 0.00 0.00 87 1016.1
20260506035408 10 221 9.7 24.1 0.00 0.00 0.00 87 1016.1
20260506034906 10 225 14.5 24.1 0.00 0.00 0.00 87 1016.1
20260506034405 10 243 9.7 22.5 0.00 0.00 0.00 86 1016.1
20260506033906 10 245 8.0 22.5 0.00 0.00 0.00 86 1016.1
20260506033406 10 238 8.0 22.5 0.00 0.00 0.00 86 1016.1
20260506032904 10 224 8.0 16.1 0.00 0.00 0.00 85 1016.0
20260506032405 10 233 8.0 29.0 0.00 0.00 0.00 85 1016.0
20260506031906 10 251 9.7 29.0 0.00 0.00 0.00 85 1016.1
20260506030407 11 262 11.3 24.1 0.00 0.00 0.00 83 1016.1
20260506025405 11 259 6.4 22.5 0.00 0.00 0.00 83 1016.1
20260506024906 11 255 8.0 22.5 0.00 0.00 0.00 83 1016.1
20260506024405 11 265 8.0 22.5 0.00 0.00 0.00 83 1016.1
20260506023906 11 242 8.0 19.3 0.00 0.00 0.00 83 1016.1
20260506023405 11 250 6.4 27.4 0.00 0.00 0.00 83 1016.1
20260506022906 11 256 8.0 27.4 0.00 0.00 0.00 83 1016.1
20260506022405 11 210 8.0 25.7 0.00 0.00 0.00 83 1016.1
20260506021905 11 202 9.7 25.7 0.00 0.00 0.00 82 1016.1
20260506021404 11 261 9.7 25.7 0.00 0.00 0.00 82 1016.1
20260506020905 11 225 12.9 27.4 0.00 0.00 0.00 82 1016.1
20260506020405 11 279 8.0 27.4 0.00 0.00 0.00 82 1016.1
20260506015904 11 238 8.0 27.4 0.00 0.00 0.00 82 1016.1
20260506015404 11 236 8.0 27.4 0.00 0.00 0.00 81 1016.1
20260506014906 11 256 9.7 45.1 0.00 0.00 0.00 81 1016.1
20260506014404 12 243 9.7 45.1 0.00 0.00 0.00 80 1016.1
20260506013906 12 253 11.3 41.8 0.00 0.00 0.00 80 1016.1
20260506012405 12 250 9.7 27.4 0.00 0.00 0.00 79 1016.1
20260506011905 12 252 8.0 27.4 0.00 0.00 0.00 78 1016.1
20260506011405 12 257 9.7 22.5 0.00 0.00 0.00 78 1016.2
20260506010905 12 264 9.7 22.5 0.00 0.00 0.00 77 1016.2
20260506010405 13 283 8.0 25.7 0.00 0.00 0.00 76 1016.2
20260506005905 13 221 11.3 25.7 0.00 0.00 0.00 76 1016.2
20260506004905 13 258 9.7 29.0 0.00 0.00 0.00 76 1016.2
20260506004405 13 242 8.0 22.5 0.00 0.00 0.00 76 1016.2
20260506003906 13 261 4.8 22.5 0.00 0.00 0.00 75 1016.2
20260506003406 13 283 8.0 24.1 0.00 0.00 0.00 75 1016.2
20260506002405 14 266 4.8 19.3 0.00 0.00 0.00 74 1016.2
20260506001905 14 240 9.7 16.1 0.00 0.00 0.00 74 1016.2
20260506001405 14 279 9.7 25.7 0.00 0.00 0.00 74 1016.2
20260506000904 14 271 11.3 25.7 0.00 0.00 0.00 73 1016.2
20260505235906 15 281 8.0 22.5 0.00 0.00 0.00 72 1016.7
20260505235407 15 277 4.8 22.5 0.00 0.00 0.00 72 1016.7
20260505234404 15 275 8.0 22.5 0.00 0.00 0.00 71 1016.7
20260505233906 15 246 8.0 24.1 0.00 0.00 0.00 70 1016.6
20260505233405 16 236 8.0 24.1 0.00 0.00 0.00 69 1016.7
20260505232904 16 251 4.8 20.9 0.00 0.00 0.00 70 1016.7
20260505232406 16 290 8.0 20.9 0.00 0.00 0.00 68 1016.8
20260505231405 16 277 3.2 16.1 0.00 0.00 0.00 69 1017.0
20260505230905 16 298 6.4 19.3 0.00 0.00 0.00 68 1017.0
20260505230404 16 248 6.4 22.5 0.00 0.00 0.00 68 1017.0
20260505225405 16 294 8.0 22.5 0.00 0.00 0.00 68 1017.0
20260505224404 17 288 8.0 16.1 0.00 0.00 0.00 69 1017.1
20260505223905 16 297 3.2 12.9 0.00 0.00 0.00 68 1017.1
20260505222905 17 288 4.8 20.9 0.00 0.00 0.00 68 1017.2
20260505222404 17 306 6.4 22.5 0.00 0.00 0.00 67 1017.2
20260505221405 17 298 8.0 19.3 0.00 0.00 0.00 67 1017.2
20260505220906 17 291 8.0 16.1 0.00 0.00 0.00 67 1017.3
20260505220405 17 292 8.0 19.3 0.00 0.00 0.00 68 1017.3
20260505215904 17 295 9.7 19.3 0.00 0.00 0.00 67 1017.3
20260505214904 17 289 8.0 19.3 0.00 0.00 0.00 68 1017.5
20260505214405 17 293 8.0 19.3 0.00 0.00 0.00 70 1017.5
20260505213904 17 284 8.0 16.1 0.00 0.00 0.00 69 1017.5
20260505213405 16 291 8.0 16.1 0.00 0.00 0.00 71 1017.5
20260505212904 16 293 8.0 16.1 0.00 0.00 0.00 71 1017.5
20260505212404 16 296 8.0 19.3 0.00 0.00 0.00 74 1017.5
20260505211905 16 287 9.7 19.3 0.00 0.00 0.00 72 1017.4
20260505211405 16 293 9.7 19.3 0.00 0.00 0.00 75 1017.4
20260505210906 15 286 9.7 19.3 0.00 0.00 0.00 74 1017.4
20260505210404 15 288 9.7 20.9 0.00 0.00 0.00 73 1017.4
20260505205905 15 290 11.3 20.9 0.00 0.00 0.00 73 1017.4
20260505205404 15 288 9.7 19.3 0.00 0.00 0.00 73 1017.4
20260505204905 15 291 8.0 16.1 0.00 0.00 0.00 76 1017.6
20260505204405 15 286 8.0 16.1 0.00 0.00 0.00 75 1017.6
20260505203405 15 291 8.0 16.1 0.00 0.00 0.00 74 1017.6
20260505202904 15 286 8.0 12.9 0.00 0.00 0.00 75 1017.6
20260505202405 15 292 8.0 12.9 0.00 0.00 0.00 74 1017.6
20260505201904 15 291 8.0 12.9 0.00 0.00 0.00 75 1017.6
20260505200905 15 289 8.0 12.9 0.00 0.00 0.00 76 1017.6
20260505200404 15 291 8.0 12.9 0.00 0.00 0.00 76 1017.6
20260505195904 15 287 8.0 12.9 0.00 0.00 0.00 77 1017.5
20260505195404 14 295 6.4 11.3 0.00 0.00 0.00 78 1017.5
20260505194904 14 305 6.4 12.9 0.00 0.00 0.00 77 1017.5
20260505194405 14 264 8.0 16.1 0.00 0.00 0.00 77 1017.5
20260505193906 14 281 8.0 16.1 0.00 0.00 0.00 77 1017.5
20260505193405 14 289 8.0 12.9 0.00 0.00 0.00 78 1017.5
20260505192905 14 285 8.0 12.9 0.00 0.00 0.00 78 1017.5
20260505192404 14 288 8.0 12.9 0.00 0.00 0.00 78 1017.5
20260505191904 14 282 8.0 12.9 0.00 0.00 0.00 78 1017.5
20260505191404 14 284 8.0 12.9 0.00 0.00 0.00 79 1017.5
20260505190904 13 286 8.0 11.3 0.00 0.00 0.00 80 1017.4
20260505185904 13 292 8.0 12.9 0.00 0.00 0.00 82 1017.4
20260505185406 13 291 8.0 12.9 0.00 0.00 0.00 82 1017.3
20260505184905 13 286 8.0 16.1 0.00 0.00 0.00 83 1017.3
20260505183905 12 292 9.7 16.1 0.00 0.00 0.00 82 1017.4
20260505182906 12 293 8.0 12.9 0.00 0.00 0.00 83 1017.2
20260505181905 12 287 6.4 12.9 0.00 0.00 0.00 84 1017.2
20260505181404 12 302 4.8 12.9 0.00 0.00 0.00 84 1017.2
20260505180404 12 281 8.0 12.9 0.00 0.00 0.00 84 1017.2
20260505175904 12 285 4.8 12.9 0.00 0.00 0.00 84 1017.2
20260505175405 12 293 8.0 12.9 0.00 0.00 0.00 85 1017.2
20260505174905 12 286 6.4 12.9 0.00 0.00 0.00 85 1017.2
20260505174405 12 273 8.0 12.9 0.00 0.00 0.00 85 1017.1
20260505173905 12 276 4.8 11.3 0.00 0.00 0.00 86 1017.1
20260505173405 12 290 4.8 9.7 0.00 0.00 0.00 86 1017.0
20260505172905 12 290 4.8 9.7 0.00 0.00 0.00 87 1016.9
20260505172406 11 292 4.8 9.7 0.00 0.00 0.00 87 1016.9
20260505171906 11 293 4.8 9.7 0.00 0.00 0.00 87 1016.9
20260505171404 11 293 4.8 8.0 0.00 0.00 0.00 88 1017.0
20260505170904 11 294 4.8 8.0 0.00 0.00 0.00 88 1016.9
20260505170404 11 294 4.8 9.7 0.00 0.00 0.00 89 1016.9
20260505165906 11 296 4.8 9.7 0.00 0.00 0.00 89 1016.9
20260505165404 11 279 4.8 9.7 0.00 0.00 0.00 89 1016.9
20260505164907 11 285 4.8 9.7 0.00 0.00 0.00 90 1016.9
20260505164404 11 294 4.8 9.7 0.00 0.00 0.00 90 1016.9
20260505163905 11 290 4.8 11.3 0.00 0.00 0.00 90 1016.9
20260505163407 11 290 4.8 11.3 0.00 0.00 0.00 91 1016.9
20260505162906 11 298 4.8 11.3 0.00 0.00 0.00 91 1016.9
20260505162405 11 279 4.8 11.3 0.00 0.00 0.00 91 1016.9
20260505161405 11 283 4.8 9.7 0.00 0.00 0.00 91 1016.8
20260505160406 11 286 4.8 11.3 0.00 0.00 0.00 91 1016.7
20260505152904 10 290 4.8 11.3 0.00 0.00 0.00 91 1016.6
20260505152405 10 276 6.4 11.3 0.00 0.00 0.00 91 1016.4
20260505151905 10 293 4.8 11.3 0.00 0.00 0.00 91 1016.4
20260505151405 10 285 3.2 9.7 0.00 0.00 0.00 91 1016.4
20260505150905 10 284 3.2 9.7 0.00 0.00 0.00 91 1016.4